User: anonymous   Login
Location: ??
(35.5052°N, 139.7262°E)
Time: 20:15:10
(UTC+00:00)
Language:

Cosmos 1766 Rocket - Orbit

View from above orbital plane
View from above orbital plane
View from above satellite
View from above satellite

Ground track
Ground track

The orbit data is extracted from the following two-line orbital elements,

1 16882U 86055B   21271.31769601  .00000166  00000-0  17349-4 0  9996
2 16882  82.5235 209.1089 0018405 293.7217 179.7583 14.83287312878596
Epoch (UTC): 28 September 2021 07:37:28
Eccentricity: 0.0018405
inclination: 82.5235°
perigee height: 606 km
apogee height: 632 km
right ascension of ascending node: 209.1089°
argument of perigee: 293.7217°
revolutions per day: 14.83287312
mean anomaly at epoch: 179.7583°
orbit number at epoch: 87859

The dashed part of the orbit path shows where the satellite is in the earth's shadow,  

DLR